Temp
2 2 2 2 2 2 2 2 2 2 3 3 4 4 4 5 7 7 8 8 8 8 8 8 8 9 9 11 13 15 14 14 13 13 15 17 19 20 21 23 23 23 24 24 24 24 24
2 2 2 2 1 1 2 2 2 2 2 3 3 3 3 5 6 7 7 7 7 8 8 9 9 8 6 11 13 14 13 14 14 15 15 17 19 20 21 22 24 24 24 23 24 24 24
2 2 1 2 1 1 1 1 1 2 2 2 3 3 4 4 4 5 5 6 7 8 9 9 8 8 7 11 13 13 13 13 13 14 15 16 18 19 20 22 22 23 23 24 24 24 24
1 1 1 1 1 1 1 1 1 1 2 2 2 3 3 4 4 4 5 6 7 8 9 9 8 6 8 11 12 12 12 12 13 14 14 14 16 17 19 20 22 22 22 22 25 25 24
1 1 1 1 1 1 1 1 1 1 1 2 2 2 3 3 4 4 5 7 7 8 7 8 7 6 11 11 11 12 12 12 13 13 13 14 15 17 18 19 20 22 21 22 24 26 25
1 1 1 1 1 1 1 0 0 1 1 2 1 2 2 3 4 4 5 7 7 7 6 6 7 8 10 13 13 12 12 12 12 11 13 14 16 17 18 18 18 21 22 23 24 25 24
1 1 1 1 1 1 0 0 0 1 1 1 1 1 2 3 3 4 5 7 9 9 9 10 11 11 11 12 11 12 12 11 12 12 12 16 16 17 18 18 19 21 23 24 24 26 24
0 0 1 0 1 0 0 1 1 0 1 1 0 1 2 2 3 4 5 6 5 3 5 7 8 9 9 9 10 11 12 13 13 12 13 14 16 19 19 19 19 20 21 22 24 25 22
-0 -0 0 0 0 -0 0 0 -0 0 -0 0 0 0 1 2 3 4 5 5 5 4 6 10 11 11 11 9 10 11 13 13 13 11 12 12 17 18 18 19 19 20 20 22 22 24 23
-0 0 -0 -0 0 0 0 0 -0 -0 -0 -0 -0 0 1 2 3 4 6 5 5 4 7 14 14 13 11 9 11 11 12 13 13 11 11 14 16 17 17 17 19 19 22 22 22 22 21
-0 -0 -0 -0 -0 -0 -0 -0 -0 -0 -1 -0 -0 0 1 2 2 4 5 4 4 4 12 15 14 12 12 12 13 13 11 12 13 13 13 14 17 17 17 18 19 19 21 21 21 21 21
-0 -0 -0 -1 -1 -0 -0 -0 -0 -0 -1 -1 -0 0 1 2 2 3 4 3 5 7 12 14 14 14 15 15 14 13 13 12 12 10 12 13 15 17 18 19 19 20 20 20 20 21 19
-1 -1 -1 -1 -1 -1 -1 -0 -1 -1 -1 -1 -0 -0 0 1 3 3 3 4 9 11 15 14 14 14 15 15 16 14 13 12 12 9 10 12 13 16 18 17 18 19 19 18 18 18 18
-1 -1 -1 -1 -1 -1 -1 -1 -1 -1 -1 -1 -1 -0 0 1 2 2 3 8 9 13 14 14 14 14 15 16 16 15 14 12 13 14 13 13 12 15 18 17 18 19 19 18 17 18 20
-2 -2 -2 -1 -1 -1 -1 -1 -1 -1 -1 -1 -1 -0 1 2 2 2 3 7 11 13 14 12 13 14 15 15 15 15 15 14 14 14 14 15 16 18 18 17 17 19 18 20 19 18 19
-2 -2 -2 -2 -1 -1 -1 -1 -1 -1 -1 -1 -0 1 2 3 2 2 3 6 11 12 11 12 11 13 13 14 14 15 15 14 13 14 15 16 15 18 18 18 17 17 20 18 19 16 17
-2 -2 -2 -2 -2 -2 -1 -1 -2 -1 -1 -1 -0 0 4 3 2 2 4 7 10 10 10 10 11 12 12 12 13 14 12 13 12 13 14 15 15 16 18 17 17 16 18 18 19 19 17
-2 -2 -2 -2 -2 -2 -2 -2 -1 -2 -1 -2 0 1 3 2 2 4 4 7 8 10 10 10 11 11 11 11 11 13 13 13 11 12 13 15 15 14 14 18 19 18 18 19 17 16 19
-3 -3 -3 -2 -2 -2 -2 -2 -1 -2 -2 -0 -0 1 2 1 3 4 6 7 7 9 10 10 10 11 12 11 10 12 13 13 12 11 11 12 14 13 14 15 18 18 18 18 18 18 15
-3 -3 -3 -2 -2 -2 -2 -2 -2 -2 -2 -2 -1 1 3 1 3 5 6 6 7 8 9 10 11 11 11 10 11 11 12 13 12 12 10 10 13 14 14 16 18 17 18 18 18 16 17
-3 -3 -3 -3 -2 -2 -2 -2 -2 -2 -2 -2 -1 1 3 3 4 5 6 6 7 7 8 9 9 10 10 9 10 10 11 12 13 11 12 11 9 11 15 16 17 18 17 18 17 17 16
-3 -3 -3 -3 -3 -2 -2 -2 -2 -2 -2 -2 -1 1 2 4 5 6 6 4 6 8 9 8 8 9 10 10 10 9 11 12 12 12 11 12 9 8 12 14 15 15 16 18 18 18 18
-3 -4 -3 -3 -3 -3 -2 -3 -2 -2 -2 -2 -1 -0 0 3 5 5 5 6 7 8 8 8 9 9 9 9 9 8 8 9 9 9 10 11 11 9 8 13 13 12 15 16 17 18 18
-3 -3 -3 -3 -3 -3 -2 -2 -2 -2 -2 -2 -1 -0 -1 2 4 5 7 6 7 8 8 9 9 9 8 6 6 7 8 8 9 10 10 10 11 11 10 10 9 15 17 18 17 18 18
-3 -2 -2 -3 -3 -2 -2 -2 -2 -2 -2 -3 -2 -1 1 1 4 5 5 6 6 7 7 7 7 8 5 4 5 6 7 8 8 10 10 11 10 10 10 12 14 15 16 16 16 16 17
-2 -2 -1 -2 -2 -2 -2 -2 -2 -2 -2 -2 -2 -1 -1 0 3 5 6 6 6 6 6 7 4 3 2 3 4 6 8 9 9 10 11 11 10 10 11 10 11 15 16 16 17 15 16
-2 -1 -1 -1 -1 -2 -2 -2 -2 -2 -2 -2 -2 -2 -1 -1 2 3 5 6 6 6 5 6 2 1 1 3 4 7 8 9 9 9 9 9 9 9 10 11 13 16 16 15 13 13 13
-2 -1 -1 -1 -1 -1 -1 -2 -2 -1 -2 -2 -2 -1 -2 -1 1 3 3 4 5 5 5 2 2 2 2 4 6 8 8 8 10 10 10 9 9 9 10 10 10 14 14 13 12 12 11
-1 -1 -1 -1 -1 -1 -1 -1 -1 -1 -1 -2 -1 -1 -1 -2 0 2 3 3 3 3 2 1 3 4 6 6 7 7 7 7 10 8 12 9 11 11 11 12 13 12 11 10 10 10 9
Height
1536 1536 1535 1534 1532 1530 1528 1530 1527 1523 1521 1519 1518 1516 1513 1509 1506 1502 1501 1499 1497 1495 1491 1489 1487 1484 1484 1486 1473 1473 1470 1470 1468 1465 1472 1470 1468 1466 1461 1458 1456 1453 1453 1451 1451 1451 1451
1533 1533 1533 1534 1532 1531 1528 1525 1525 1522 1518 1516 1514 1513 1512 1507 1503 1500 1498 1496 1494 1491 1487 1483 1483 1481 1485 1477 1466 1469 1468 1468 1467 1465 1471 1468 1466 1463 1458 1454 1449 1449 1449 1450 1447 1447 1448
1532 1529 1529 1531 1531 1530 1527 1524 1523 1520 1517 1514 1511 1510 1507 1504 1503 1498 1496 1493 1490 1487 1482 1479 1478 1476 1478 1461 1466 1466 1464 1463 1463 1464 1468 1466 1465 1462 1457 1452 1451 1448 1447 1445 1442 1441 1441
1531 1528 1525 1527 1527 1527 1526 1523 1521 1518 1515 1513 1510 1507 1504 1502 1501 1496 1492 1489 1485 1481 1477 1474 1474 1473 1467 1461 1461 1459 1461 1459 1460 1459 1465 1467 1465 1463 1459 1454 1448 1447 1445 1445 1433 1435 1437
1526 1527 1523 1523 1523 1522 1523 1523 1517 1516 1513 1511 1507 1505 1503 1500 1497 1494 1489 1485 1480 1476 1473 1471 1471 1470 1462 1457 1456 1453 1456 1457 1457 1458 1463 1466 1464 1461 1459 1455 1449 1441 1440 1437 1431 1422 1427
1521 1523 1522 1521 1519 1517 1518 1519 1515 1514 1509 1507 1507 1503 1501 1498 1493 1491 1487 1481 1478 1473 1471 1472 1469 1472 1460 1457 1455 1454 1453 1455 1454 1455 1463 1463 1460 1455 1453 1450 1451 1437 1434 1429 1422 1416 1425
1520 1517 1515 1518 1517 1514 1513 1514 1514 1511 1507 1505 1504 1502 1499 1496 1492 1490 1486 1481 1478 1473 1473 1470 1462 1456 1455 1456 1454 1453 1453 1454 1454 1457 1463 1453 1453 1443 1443 1445 1443 1433 1420 1419 1415 1411 1422
1516 1513 1512 1514 1511 1511 1509 1512 1511 1507 1503 1502 1502 1499 1497 1495 1492 1489 1489 1487 1487 1487 1473 1461 1456 1454 1450 1455 1455 1451 1452 1453 1453 1453 1459 1456 1440 1435 1438 1441 1443 1437 1429 1425 1418 1414 1427
1511 1510 1509 1508 1508 1505 1505 1510 1507 1505 1501 1500 1499 1498 1495 1493 1492 1488 1490 1489 1487 1487 1479 1452 1450 1448 1448 1449 1449 1448 1450 1448 1449 1457 1453 1454 1433 1434 1436 1437 1439 1430 1430 1426 1425 1413 1422
1507 1504 1504 1505 1503 1501 1503 1504 1504 1503 1500 1499 1497 1495 1494 1491 1494 1489 1488 1487 1488 1488 1473 1440 1443 1444 1446 1446 1447 1445 1446 1448 1449 1451 1454 1443 1436 1434 1436 1436 1434 1429 1421 1423 1423 1425 1427
1502 1500 1502 1499 1498 1497 1500 1501 1499 1498 1497 1496 1494 1492 1491 1489 1490 1489 1489 1487 1487 1487 1448 1438 1441 1444 1444 1443 1441 1439 1443 1446 1443 1446 1449 1437 1427 1430 1433 1431 1431 1427 1420 1420 1424 1424 1422
1496 1498 1494 1495 1494 1493 1494 1495 1496 1495 1491 1493 1490 1490 1488 1491 1489 1487 1487 1486 1487 1479 1441 1435 1437 1437 1435 1431 1435 1438 1440 1445 1447 1455 1452 1442 1433 1428 1426 1425 1428 1422 1423 1423 1423 1421 1428
1492 1490 1489 1489 1489 1491 1488 1489 1490 1489 1490 1487 1488 1487 1487 1487 1488 1487 1486 1484 1471 1451 1433 1433 1436 1435 1432 1426 1424 1431 1436 1440 1440 1452 1448 1442 1436 1428 1423 1425 1427 1423 1423 1431 1433 1426 1425
1485 1486 1484 1483 1483 1483 1485 1485 1484 1485 1486 1485 1483 1484 1484 1486 1484 1487 1486 1479 1463 1434 1432 1432 1436 1432 1428 1424 1420 1424 1430 1435 1437 1429 1431 1433 1438 1428 1418 1420 1418 1415 1416 1419 1429 1420 1407
1478 1480 1479 1478 1478 1478 1479 1480 1481 1481 1481 1482 1480 1481 1480 1481 1482 1483 1484 1465 1441 1435 1434 1439 1435 1428 1423 1424 1426 1420 1422 1421 1423 1429 1428 1417 1412 1408 1411 1417 1418 1410 1413 1412 1414 1416 1411
1472 1473 1473 1473 1472 1472 1474 1475 1476 1477 1478 1479 1480 1478 1476 1476 1478 1479 1479 1461 1444 1446 1446 1443 1438 1430 1429 1427 1424 1416 1416 1424 1425 1425 1421 1414 1417 1404 1407 1414 1417 1412 1403 1416 1410 1428 1427
1467 1467 1466 1467 1467 1468 1469 1470 1471 1473 1474 1476 1478 1475 1469 1470 1473 1474 1464 1455 1448 1448 1448 1445 1437 1436 1433 1433 1431 1422 1429 1429 1429 1426 1423 1415 1414 1408 1401 1406 1408 1414 1407 1405 1403 1407 1416
1460 1460 1460 1460 1461 1462 1463 1465 1467 1469 1470 1473 1475 1471 1464 1465 1469 1462 1459 1455 1452 1446 1447 1446 1444 1441 1439 1437 1434 1428 1424 1426 1433 1432 1421 1415 1414 1412 1415 1395 1395 1398 1402 1399 1407 1419 1401
1453 1453 1453 1454 1455 1456 1457 1459 1462 1464 1465 1470 1469 1465 1462 1462 1457 1454 1454 1452 1452 1447 1444 1441 1440 1440 1438 1437 1438 1427 1425 1428 1432 1434 1432 1426 1413 1415 1410 1412 1396 1394 1394 1399 1401 1405 1420
1446 1446 1447 1447 1448 1449 1451 1454 1457 1459 1462 1466 1466 1458 1457 1457 1453 1448 1446 1448 1442 1445 1443 1439 1437 1438 1435 1437 1435 1432 1429 1427 1431 1433 1435 1432 1417 1405 1404 1396 1389 1396 1390 1394 1397 1408 1404
1438 1438 1439 1440 1442 1443 1444 1447 1449 1453 1456 1460 1460 1451 1447 1446 1446 1447 1445 1441 1437 1437 1440 1439 1438 1437 1435 1435 1433 1434 1431 1427 1428 1429 1429 1429 1428 1420 1398 1395 1393 1382 1392 1394 1401 1404 1408
1430 1431 1431 1433 1434 1436 1438 1439 1443 1446 1450 1450 1451 1450 1447 1443 1439 1438 1439 1442 1437 1434 1432 1435 1438 1435 1432 1432 1432 1434 1429 1427 1426 1425 1430 1425 1430 1432 1411 1402 1398 1396 1393 1387 1390 1390 1391
1422 1422 1423 1424 1426 1428 1429 1432 1436 1439 1444 1441 1446 1448 1449 1440 1436 1435 1434 1436 1434 1433 1431 1432 1434 1432 1431 1434 1435 1439 1437 1435 1437 1434 1431 1428 1425 1430 1427 1410 1407 1411 1397 1394 1395 1390 1390
1413 1413 1413 1415 1416 1418 1420 1423 1428 1432 1435 1438 1441 1446 1448 1438 1435 1430 1428 1431 1428 1429 1428 1428 1431 1430 1434 1438 1439 1437 1435 1434 1433 1430 1431 1429 1421 1419 1419 1420 1427 1390 1386 1387 1390 1388 1387
1402 1400 1400 1402 1405 1408 1411 1415 1419 1424 1429 1433 1438 1440 1440 1437 1432 1430 1428 1428 1428 1428 1429 1429 1430 1429 1436 1440 1441 1430 1426 1425 1423 1421 1422 1425 1425 1417 1416 1407 1394 1389 1389 1392 1392 1393 1395
1390 1387 1385 1387 1390 1395 1400 1405 1410 1416 1421 1427 1429 1435 1438 1437 1428 1427 1423 1423 1423 1426 1426 1425 1432 1435 1438 1442 1439 1425 1410 1404 1403 1403 1411 1416 1422 1418 1411 1412 1407 1390 1389 1393 1392 1399 1399
1380 1378 1378 1377 1379 1383 1388 1393 1399 1405 1412 1418 1419 1427 1434 1432 1426 1426 1423 1421 1423 1423 1426 1424 1431 1436 1439 1437 1431 1417 1406 1401 1396 1398 1404 1410 1416 1417 1414 1407 1395 1387 1392 1397 1402 1409 1408
1369 1369 1369 1369 1370 1373 1378 1382 1388 1394 1401 1409 1411 1416 1424 1425 1421 1421 1422 1422 1421 1423 1423 1427 1432 1432 1438 1432 1421 1409 1406 1402 1393 1393 1395 1401 1408 1412 1410 1409 1409 1394 1397 1403 1407 1410 1412
1358 1357 1358 1360 1362 1364 1368 1373 1378 1384 1391 1400 1405 1407 1414 1419 1418 1420 1418 1419 1421 1423 1425 1427 1424 1424 1423 1419 1414 1413 1408 1406 1393 1396 1390 1400 1395 1395 1399 1397 1398 1401 1405 1410 1411 1411 1413
Wind_Speed
11 12 11 12 12 12 12 14 15 13 12 13 15 17 17 18 19 20 21 23 23 21 23 23 23 23 21 12 27 25 23 11 8 2 14 20 26 26 23 22 23 21 22 25 19 19 16
10 11 14 14 14 14 15 14 16 15 12 12 14 16 19 20 21 22 23 24 23 22 23 23 23 21 13 22 21 18 15 8 0 1 13 18 20 22 23 26 20 23 20 24 25 19 21
12 12 14 13 17 14 13 15 14 12 12 14 15 17 18 20 23 24 25 25 24 23 23 23 22 17 16 36 15 13 17 17 11 6 14 16 18 16 21 18 22 21 21 17 20 22 20
15 14 14 15 14 14 16 16 17 16 15 16 17 17 18 20 23 24 25 25 23 22 21 19 16 8 14 17 18 22 23 18 18 11 13 17 16 19 22 18 15 16 20 18 19 19 20
15 17 14 14 16 14 17 19 18 16 13 17 18 18 18 20 23 24 25 23 19 18 16 13 4 8 16 9 11 13 20 20 17 13 17 17 17 20 19 16 15 18 16 22 20 17 14
18 17 18 15 16 16 18 24 16 15 12 16 20 19 19 20 22 22 24 17 13 12 9 5 7 6 12 11 6 5 6 13 11 12 18 19 16 16 15 14 16 17 18 19 18 14 15
17 16 17 18 17 19 17 14 14 15 16 19 21 22 20 20 20 18 21 21 5 5 8 16 16 17 22 9 11 9 8 6 12 18 17 19 15 21 22 20 21 24 19 16 12 12 11
19 18 17 18 17 19 14 18 18 18 18 17 21 20 18 19 17 11 14 9 7 8 16 18 22 24 27 23 14 11 8 14 9 15 16 17 22 20 21 19 21 26 24 16 15 5 5
19 21 21 18 18 18 14 20 21 20 21 18 18 18 15 16 14 6 9 6 9 12 9 12 7 7 6 9 20 15 13 17 7 12 18 19 16 22 18 18 22 24 23 19 18 9 8
20 19 18 19 19 18 19 19 19 19 21 15 18 15 14 12 8 7 5 8 9 11 5 6 3 2 1 2 6 23 13 13 10 12 17 17 27 8 17 21 20 22 18 19 17 15 13
21 20 21 19 20 18 19 21 20 19 18 18 19 14 12 9 9 6 8 10 10 5 5 5 5 0 1 7 8 1 26 12 14 12 4 14 12 18 20 18 20 24 16 15 16 18 17
21 23 23 22 22 22 19 19 21 20 18 20 15 13 10 7 8 8 10 11 6 5 5 5 2 3 7 9 7 2 8 23 9 10 20 21 29 16 16 19 19 15 15 16 11 14 15
23 23 23 24 21 21 21 18 20 19 19 17 13 14 12 9 9 6 9 7 6 7 6 4 1 5 11 9 5 9 8 17 12 8 17 21 22 24 13 15 22 19 12 9 11 12 15
27 26 24 23 20 20 21 21 20 20 19 18 15 16 13 12 11 8 6 6 10 3 3 2 4 12 10 7 2 8 8 10 19 20 8 16 14 23 15 15 16 19 18 10 12 10 13
21 24 22 22 21 22 20 22 19 18 17 17 16 14 14 13 12 11 9 10 5 7 4 4 10 11 6 2 5 3 10 3 9 18 16 10 20 12 20 14 15 17 20 21 18 10 7
22 23 23 24 24 21 21 21 22 19 16 13 12 13 17 13 13 14 8 14 11 5 4 5 7 2 5 3 7 6 9 7 4 5 14 16 17 14 17 15 20 21 10 17 13 11 11
23 24 22 22 21 20 20 23 20 19 19 13 11 6 7 14 17 13 9 15 11 8 6 6 8 7 10 8 6 7 3 4 9 9 11 15 9 6 11 17 19 17 17 12 15 14 9
23 23 24 25 24 24 24 21 21 21 16 10 13 4 9 16 14 11 11 13 8 11 13 13 8 11 11 11 11 8 4 6 9 14 11 16 6 12 15 19 22 22 20 18 9 5 13
23 25 24 23 22 22 23 22 20 20 16 10 11 14 9 16 8 11 13 19 21 13 14 10 13 13 14 11 7 10 7 3 5 12 10 11 10 10 14 10 8 13 19 19 17 14 13
24 24 23 24 25 22 21 19 20 22 22 18 8 5 18 15 18 12 16 15 17 16 18 17 12 13 14 14 14 10 11 2 6 6 13 7 11 13 13 13 10 13 11 10 11 9 14
27 27 27 27 25 25 22 21 21 23 23 25 16 7 8 7 15 17 15 7 20 17 16 19 14 18 14 15 15 17 18 14 14 3 8 3 5 12 9 3 9 7 15 14 13 15 11
28 28 28 27 26 23 24 23 24 25 26 29 10 8 13 18 15 18 19 17 18 15 17 17 16 17 18 19 16 15 12 12 10 4 6 5 3 6 9 4 4 5 8 10 11 13 13
29 29 29 28 26 25 26 24 26 25 26 19 24 15 10 9 15 11 13 19 18 17 15 21 15 16 13 12 10 11 17 16 12 13 8 9 8 4 3 7 2 5 13 11 11 13 13
30 30 31 31 31 29 28 28 26 29 33 31 15 18 11 10 12 14 18 17 18 16 18 21 18 16 8 4 8 14 18 18 19 18 16 12 9 8 3 5 3 1 2 12 14 9 6
34 36 37 37 36 32 30 30 30 31 32 31 26 21 22 11 18 17 17 14 17 19 18 17 18 7 3 3 6 9 9 11 18 19 18 15 12 5 5 7 7 3 5 6 6 4 2
33 32 35 33 34 37 35 34 34 33 34 35 36 30 22 15 17 26 19 21 12 11 12 18 3 5 5 2 4 7 7 12 10 8 20 16 13 9 5 7 5 6 7 2 4 7 7
32 29 26 22 27 30 35 37 37 37 37 37 38 39 32 20 26 17 15 14 20 17 6 8 7 4 6 3 5 7 10 5 6 11 20 14 12 14 11 8 6 4 5 1 11 4 8
33 31 29 26 24 27 27 30 33 36 38 38 42 45 44 15 31 20 24 17 14 13 9 2 5 4 3 4 5 7 5 4 4 8 17 14 11 9 13 12 14 5 4 8 8 10 9
35 34 31 29 25 24 29 30 32 33 34 37 36 36 38 31 18 28 29 24 17 16 8 6 5 5 13 6 6 2 4 1 10 4 11 9 12 7 10 10 7 9 13 10 8 9 11
Wind_Direction
309 311 300 298 295 288 286 291 294 301 307 316 319 321 321 319 317 315 313 313 314 314 309 308 307 309 315 283 256 269 288 348 355 242 217 228 223 227 227 234 235 231 241 257 247 255 250
310 307 305 310 302 299 298 290 304 304 313 317 321 318 319 319 318 314 314 314 315 313 304 303 302 302 294 269 288 262 251 245 326 292 251 229 229 230 239 242 247 241 243 255 257 249 244
281 295 300 293 304 300 304 308 302 308 312 307 304 308 312 318 317 317 315 314 316 310 303 299 296 294 266 255 277 261 270 259 264 282 263 245 242 251 240 261 259 253 258 257 244 247 248
295 281 283 297 287 298 298 295 303 288 290 297 302 304 308 311 313 316 316 316 314 307 300 295 293 259 259 271 276 261 249 254 238 243 260 256 257 256 256 265 251 245 242 249 243 228 238
280 291 288 283 293 285 291 290 291 300 301 299 303 306 302 306 313 319 321 322 315 305 299 300 311 215 267 289 276 278 247 241 227 218 270 252 247 244 234 241 249 234 237 229 247 248 224
276 278 286 282 286 282 286 297 290 297 291 299 301 302 304 308 315 325 326 335 328 320 325 288 250 233 255 291 314 285 227 225 222 193 263 240 234 237 228 231 231 235 218 246 258 205 207
281 278 280 278 280 286 290 301 301 296 295 289 295 299 302 308 318 333 345 341 325 238 269 276 278 257 286 303 313 269 212 176 190 179 237 230 223 227 226 221 251 267 262 261 245 243 210
269 271 277 287 274 282 285 282 287 286 285 296 299 300 300 306 320 339 358 9 16 324 299 287 271 267 267 261 274 277 223 209 191 209 209 264 229 232 237 242 238 249 258 258 267 230 221
280 274 269 273 280 297 279 282 290 283 292 281 295 299 300 306 325 15 336 343 340 323 273 305 258 274 292 231 234 245 227 231 203 201 234 233 245 226 246 232 238 239 244 247 258 259 211
282 284 294 263 278 281 280 278 291 286 295 288 295 293 298 308 321 326 321 332 313 323 279 141 162 121 215 150 224 234 230 223 191 231 221 250 234 158 229 236 237 242 232 250 260 256 257
283 281 280 276 272 276 279 278 277 281 293 289 295 286 294 299 286 310 306 308 310 294 284 103 119 89 163 237 326 219 208 219 222 224 241 245 224 238 225 234 226 253 257 256 237 254 260
275 280 278 282 275 273 280 278 276 279 290 288 287 284 284 323 280 279 288 302 290 233 231 144 146 315 275 252 227 131 180 215 216 236 270 269 286 281 247 232 257 265 223 256 239 246 244
278 275 279 286 271 270 273 276 269 277 288 280 273 278 268 259 258 283 304 292 240 244 126 112 66 313 304 282 253 193 189 197 204 195 232 250 268 267 234 225 235 232 208 212 217 223 236
275 279 280 277 273 275 281 266 264 273 289 273 269 273 272 258 250 259 265 235 245 4 235 27 291 301 279 334 169 188 205 204 231 240 245 230 236 244 223 244 223 212 213 218 219 226 229
280 277 278 277 276 275 267 268 275 267 275 274 283 277 264 250 237 228 238 223 244 268 358 310 299 268 252 244 293 246 219 297 213 225 232 286 233 219 222 208 261 220 219 236 268 247 274
275 272 271 268 270 266 269 261 264 266 264 271 275 271 257 231 216 211 221 234 256 252 301 260 265 272 284 5 297 293 199 72 1 302 277 252 269 258 195 207 229 252 235 219 227 238 236
273 278 276 275 273 274 271 266 263 257 249 255 259 258 243 201 197 209 223 222 249 239 225 249 259 262 278 296 308 302 108 154 29 340 301 262 266 228 256 204 209 230 233 237 233 225 239
276 276 278 275 272 269 266 260 258 259 236 237 233 224 200 177 194 212 226 227 290 259 226 250 262 270 272 287 290 278 278 331 26 335 313 222 257 246 242 222 222 205 226 230 226 236 236
277 275 275 270 271 265 261 257 243 248 234 223 229 236 241 189 214 221 234 229 249 251 242 237 233 245 262 270 277 246 271 65 40 325 355 353 225 244 207 260 207 238 219 216 234 235 220
283 279 271 268 265 263 260 249 247 242 239 222 245 224 219 212 233 263 229 231 236 223 251 244 252 250 249 249 257 270 261 283 320 315 315 297 266 255 236 243 242 205 207 214 239 229 235
282 276 272 268 268 263 254 249 242 232 233 211 219 241 220 206 225 228 245 248 226 230 227 240 233 246 245 247 253 254 262 270 280 193 288 288 296 321 279 284 278 221 207 223 231 236 248
280 272 271 265 263 256 253 248 238 233 230 214 204 225 237 255 242 222 225 244 252 247 220 222 233 233 234 246 253 256 267 269 273 274 303 203 284 290 238 193 263 223 251 243 232 240 244
278 271 264 263 259 257 255 247 233 225 228 223 219 234 262 249 247 233 224 221 242 246 249 242 226 246 255 259 292 271 277 285 268 277 295 289 241 212 290 292 266 262 232 229 245 249 249
277 271 264 258 256 257 250 242 229 226 227 232 209 220 232 245 244 255 239 224 232 252 252 242 242 247 257 341 290 269 260 253 257 253 249 262 256 253 224 192 241 178 344 215 229 217 224
279 276 264 252 251 248 245 239 231 224 222 224 224 223 225 243 247 249 245 247 260 245 242 255 245 273 175 338 306 257 231 238 241 234 231 219 254 250 228 235 272 306 227 217 203 209 105
286 293 285 264 252 243 239 236 234 232 228 230 230 222 231 237 241 247 259 252 249 254 261 243 74 141 128 145 234 251 228 221 192 197 208 204 224 242 213 245 231 292 107 325 264 185 56
287 282 277 281 245 241 237 236 234 230 228 226 232 223 225 238 242 247 250 246 243 247 260 260 139 118 163 212 240 244 250 260 215 187 180 191 196 222 229 238 245 148 119 281 217 94 42
284 275 274 269 260 239 234 230 229 228 225 220 228 228 216 229 238 237 246 258 247 248 234 128 127 160 174 244 251 241 242 251 249 203 182 185 186 203 228 231 244 52 217 229 50 80 46
277 273 269 259 251 240 233 229 226 221 217 213 222 227 214 215 238 238 240 247 258 261 256 200 266 155 210 236 230 249 274 192 263 199 176 201 203 182 201 218 89 82 79 83 65 62 46